TimeMST,TemperatureF,Dew PointF,Humidity,Sea Level PressureIn,VisibilityMPH,Wind Direction,Wind SpeedMPH,Gust SpeedMPH,PrecipitationIn,Events,Conditions,WindDirDegrees,DateUTC
12:56 AM,27.0,23.0,85,30.09,10.0,SSE,8.1,-,N/A,,Overcast,150,2013-12-01 07:56:00
1:56 AM,28.9,24.1,82,30.08,10.0,SE,4.6,-,N/A,,Overcast,130,2013-12-01 08:56:00
2:56 AM,27.0,24.1,89,30.06,10.0,Calm,Calm,-,N/A,,Overcast,0,2013-12-01 09:56:00
3:56 AM,27.0,23.0,85,30.04,10.0,SE,8.1,-,N/A,,Partly Cloudy,140,2013-12-01 10:56:00
4:56 AM,28.9,25.0,85,30.03,10.0,SSE,4.6,-,N/A,,Mostly Cloudy,150,2013-12-01 11:56:00
5:56 AM,30.9,26.1,82,29.93,10.0,Calm,Calm,-,N/A,,Overcast,0,2013-12-01 12:56:00
6:56 AM,32.0,27.0,82,29.98,10.0,South,8.1,-,N/A,,Overcast,180,2013-12-01 13:56:00
7:56 AM,32.0,28.0,85,29.98,10.0,SSW,10.4,-,0.00,,Partly Cloudy,200,2013-12-01 14:56:00
8:56 AM,39.0,30.9,73,29.95,10.0,SW,10.4,-,N/A,,Mostly Cloudy,230,2013-12-01 15:56:00
9:56 AM,43.0,30.9,62,29.92,10.0,West,11.5,-,N/A,,Overcast,270,2013-12-01 16:56:00
10:56 AM,45.0,30.9,58,29.90,10.0,West,13.8,-,N/A,,Clear,260,2013-12-01 17:56:00
11:56 AM,48.0,30.0,50,29.86,10.0,West,12.7,-,N/A,,Clear,270,2013-12-01 18:56:00
12:56 PM,48.9,28.9,46,29.82,10.0,West,10.4,-,N/A,,Clear,270,2013-12-01 19:56:00
1:56 PM,48.0,30.0,50,29.78,10.0,WSW,8.1,-,N/A,,Clear,250,2013-12-01 20:56:00
2:56 PM,46.0,28.0,50,29.78,10.0,WSW,3.5,-,N/A,,Scattered Clouds,240,2013-12-01 21:56:00
3:56 PM,42.1,27.0,55,29.77,10.0,WSW,4.6,-,N/A,,Mostly Cloudy,240,2013-12-01 22:56:00
4:56 PM,43.0,27.0,53,29.76,10.0,WSW,8.1,-,N/A,,Overcast,250,2013-12-01 23:56:00
5:56 PM,43.0,30.0,60,29.74,10.0,WSW,5.8,-,N/A,,Overcast,250,2013-12-02 00:56:00
6:56 PM,42.1,34.0,73,29.72,10.0,West,5.8,-,0.00,,Overcast,260,2013-12-02 01:56:00
7:56 PM,39.0,35.1,86,29.70,10.0,West,4.6,-,0.00,Rain,Light Rain,260,2013-12-02 02:56:00
8:56 PM,39.0,35.1,86,29.67,10.0,Calm,Calm,-,0.01,Rain,Light Rain,0,2013-12-02 03:56:00
9:56 PM,37.0,36.0,96,29.64,10.0,SSE,3.5,-,0.01,Rain,Light Rain,150,2013-12-02 04:56:00
10:07 PM,37.9,36.0,93,29.59,10.0,Calm,Calm,-,0.01,Rain,Light Rain,0,2013-12-02 05:07:00
10:56 PM,37.0,35.1,93,29.62,7.0,South,4.6,-,0.04,Rain,Light Rain,180,2013-12-02 05:56:00
11:08 PM,37.0,35.1,93,29.58,9.0,Calm,Calm,-,0.00,Rain,Light Rain,0,2013-12-02 06:08:00
11:40 PM,37.0,35.1,93,29.56,8.0,South,3.5,-,0.01,Rain,Light Rain,190,2013-12-02 06:40:00
11:56 PM,37.0,35.1,93,29.59,6.0,South,5.8,-,0.02,Rain,Light Rain,190,2013-12-02 06:56:00